EW5196 Weather Reports


Display with metric or nautical units.
time (UTC)temp
F
wind
direction
speed
MPH
gust
MPH
rain 1hr
in
rain 24hr
in
rain mn
in
humidity
%
barometer
mb
20260510023732 62 147 2.0 2.0 0.00 0.00 0.00 79 1012.2
20260510023229 62 149 2.0 2.0 0.00 0.00 0.00 79 1012.4
20260510022725 62 149 2.0 2.0 0.00 0.00 0.00 79 1012.3
20260510022220 62 154 2.0 2.0 0.00 0.00 0.00 78 1011.9
20260510021715 63 153 2.0 2.0 0.00 0.00 0.00 79 1012.0
20260510021213 62 153 2.0 2.0 0.00 0.00 0.00 79 1011.9
20260510020707 62 154 2.0 2.0 0.00 0.00 0.00 79 1011.7
20260510020202 62 147 2.0 2.0 0.00 0.00 0.00 78 1011.8
20260510015658 63 142 1.0 2.0 0.00 0.00 0.00 78 1011.7
20260510015155 63 151 2.0 2.0 0.00 0.00 0.00 78 1011.7
20260510014650 63 153 2.0 2.0 0.00 0.00 0.00 78 1011.5
20260510014148 63 162 2.0 2.0 0.00 0.00 0.00 77 1011.5
20260510013643 63 155 2.0 2.0 0.00 0.00 0.00 76 1011.6
20260510013139 64 157 2.0 2.0 0.00 0.00 0.00 76 1011.6
20260510012638 64 155 2.0 2.0 0.00 0.00 0.00 77 1011.3
20260510012134 64 161 2.0 2.0 0.00 0.00 0.00 75 1011.2
20260510011629 64 162 2.0 3.0 0.00 0.00 0.00 76 1011.4
20260510011125 65 160 2.0 2.0 0.00 0.00 0.00 75 1011.3
20260510010621 65 156 2.0 2.0 0.00 0.00 0.00 73 1011.3
20260510010119 65 159 2.0 2.0 0.00 0.00 0.00 72 1011.1
20260510005614 65 158 2.0 2.0 0.00 0.00 0.00 70 1011.2
20260510005111 66 155 2.0 2.0 0.00 0.00 0.00 70 1010.8
20260510004609 66 157 2.0 2.0 0.00 0.00 0.00 70 1010.9
20260510004107 66 158 2.0 2.0 0.00 0.00 0.00 69 1010.9
20260510003604 67 153 2.0 2.0 0.00 0.00 0.00 70 1010.7
20260510003100 67 158 2.0 2.0 0.00 0.00 0.00 68 1010.9
20260510002554 68 148 2.0 2.0 0.00 0.00 0.00 70 1010.8
20260510002051 68 151 1.0 2.0 0.00 0.00 0.00 68 1010.6
20260510001548 69 163 2.0 2.0 0.00 0.00 0.00 65 1010.7
20260510001048 69 161 2.0 2.0 0.00 0.00 0.00 64 1010.7
20260510000542 70 153 2.0 2.0 0.00 0.00 0.00 63 1010.6
20260510000039 70 159 2.0 2.0 0.00 0.00 0.00 63 1010.6
20260509235536 71 161 2.0 2.0 0.00 0.00 0.00 64 1010.4
20260509235033 71 161 1.0 2.0 0.00 0.00 0.00 60 1010.2
20260509234529 72 153 1.0 2.0 0.00 0.00 0.00 59 1010.1
20260509234027 72 173 1.0 2.0 0.00 0.00 0.00 54 1010.2
20260509233524 73 183 1.0 2.0 0.00 0.00 0.00 54 1010.4
20260509233021 73 164 2.0 2.0 0.00 0.00 0.00 53 1010.2
20260509232518 74 169 2.0 2.0 0.00 0.00 0.00 51 1010.1
20260509232015 74 170 2.0 2.0 0.00 0.00 0.00 50 1010.5
20260509231511 74 175 2.0 2.0 0.00 0.00 0.00 50 1010.1
20260509231009 74 167 1.0 2.0 0.00 0.00 0.00 51 1010.3
20260509230505 75 163 2.0 2.0 0.00 0.00 0.00 50 1010.4
20260509230002 75 177 2.0 3.0 0.00 0.00 0.00 50 1010.2
20260509225458 75 165 2.0 2.0 0.00 0.00 0.00 49 1010.2
20260509224953 75 175 1.0 3.0 0.00 0.00 0.00 49 1010.0
20260509224449 75 186 1.0 2.0 0.00 0.00 0.00 49 1010.0
20260509223946 75 148 2.0 3.0 0.00 0.00 0.00 48 1010.1
20260509223443 76 167 1.0 3.0 0.00 0.00 0.00 48 1010.2
20260509222940 76 176 2.0 3.0 0.00 0.00 0.00 49 1010.2
20260509222435 76 173 1.0 3.0 0.00 0.00 0.00 49 1010.2
20260509221932 76 185 2.0 3.0 0.00 0.00 0.00 48 1010.2
20260509221429 75 159 0.0 2.0 0.00 0.00 0.00 49 1010.2
20260509220924 75 168 2.0 2.0 0.00 0.00 0.00 49 1010.0
20260509220420 75 161 2.0 2.0 0.00 0.00 0.00 48 1010.3
20260509215917 75 185 1.0 3.0 0.00 0.00 0.00 49 1010.1
20260509215412 76 159 2.0 2.0 0.00 0.00 0.00 49 1010.0
20260509214910 76 142 2.0 2.0 0.00 0.00 0.00 47 1009.8
20260509214407 77 195 2.0 3.0 0.00 0.00 0.00 48 1009.8
20260509213904 75 166 1.0 2.0 0.00 0.00 0.00 48 1009.8
20260509213359 75 146 2.0 2.0 0.00 0.00 0.00 48 1009.8
20260509212858 75 166 3.0 3.0 0.00 0.00 0.00 47 1009.7
20260509212355 75 153 2.0 3.0 0.00 0.00 0.00 46 1009.8
20260509211851 76 158 2.0 3.0 0.00 0.00 0.00 48 1010.0
20260509211346 76 188 1.0 3.0 0.00 0.00 0.00 49 1009.6
20260509210843 76 54 2.0 3.0 0.00 0.00 0.00 49 1009.6
20260509210341 77 156 2.0 2.0 0.00 0.00 0.00 48 1009.7
20260509205840 77 130 2.0 2.0 0.00 0.00 0.00 45 1009.6
20260509205335 77 240 0.0 2.0 0.00 0.00 0.00 47 1009.6
20260509204832 77 158 3.0 4.0 0.00 0.00 0.00 47 1009.5
20260509204328 76 145 1.0 3.0 0.00 0.00 0.00 49 1009.4
20260509203824 76 184 2.0 3.0 0.00 0.00 0.00 49 1009.6
20260509203321 77 189 2.0 2.0 0.00 0.00 0.00 47 1009.4
20260509202817 78 167 1.0 3.0 0.00 0.00 0.00 44 1009.4
20260509202314 78 232 0.0 2.0 0.00 0.00 0.00 45 1009.2
20260509201813 78 175 0.0 2.0 0.00 0.00 0.00 46 1009.1
20260509201310 78 125 3.0 3.0 0.00 0.00 0.00 47 1009.5
20260509200807 77 196 0.0 1.0 0.00 0.00 0.00 46 1009.6
20260509200302 77 193 0.0 2.0 0.00 0.00 0.00 46 1009.7
20260509195758 78 202 1.0 2.0 0.00 0.00 0.00 44 1009.7
20260509195253 78 210 3.0 3.0 0.00 0.00 0.00 44 1010.0
20260509194748 77 144 0.0 2.0 0.00 0.00 0.00 45 1010.0
20260509194244 77 259 0.0 2.0 0.00 0.00 0.00 46 1010.1
20260509193741 77 96 0.0 2.0 0.00 0.00 0.00 49 1010.2
20260509193241 76 215 0.0 2.0 0.00 0.00 0.00 47 1010.3
20260509192737 75 157 1.0 2.0 0.00 0.00 0.00 48 1010.3
20260509192232 76 184 0.0 2.0 0.00 0.00 0.00 48 1010.4
20260509191728 78 175 2.0 2.0 0.00 0.00 0.00 44 1010.6
20260509191225 78 74 0.0 1.0 0.00 0.00 0.00 45 1010.3
20260509190721 77 188 3.0 3.0 0.00 0.00 0.00 47 1010.6
20260509190218 76 213 0.0 3.0 0.00 0.00 0.00 49 1010.7
20260509185716 75 163 0.0 3.0 0.00 0.00 0.00 50 1010.9
20260509185212 76 150 1.0 3.0 0.00 0.00 0.00 47 1010.9
20260509184709 77 225 0.0 3.0 0.00 0.00 0.00 45 1011.0
20260509184207 78 153 1.0 3.0 0.00 0.00 0.00 46 1010.9
20260509183703 77 101 1.0 3.0 0.00 0.00 0.00 46 1011.1
20260509183158 78 112 1.0 2.0 0.00 0.00 0.00 46 1011.3
20260509182654 77 184 1.0 3.0 0.00 0.00 0.00 46 1011.0
20260509182152 75 173 2.0 3.0 0.00 0.00 0.00 50 1011.1
20260509181649 73 175 2.0 3.0 0.00 0.00 0.00 51 1011.4
20260509181146 73 148 2.0 3.0 0.00 0.00 0.00 50 1011.4
20260509180643 74 83 0.0 3.0 0.00 0.00 0.00 52 1011.6
20260509180139 75 142 1.0 2.0 0.00 0.00 0.00 50 1011.3
20260509175635 75 140 2.0 3.0 0.00 0.00 0.00 50 1011.5
20260509175132 74 160 0.0 2.0 0.00 0.00 0.00 49 1011.5
20260509174628 75 213 1.0 2.0 0.00 0.00 0.00 48 1011.8
20260509174123 75 80 2.0 2.0 0.00 0.00 0.00 49 1011.4
20260509173619 76 128 3.0 4.0 0.00 0.00 0.00 46 1011.4
20260509173115 75 77 3.0 4.0 0.00 0.00 0.00 51 1011.3
20260509172612 74 144 1.0 3.0 0.00 0.00 0.00 52 1011.4
20260509172108 74 221 2.0 2.0 0.00 0.00 0.00 49 1011.4
20260509171604 74 141 0.0 3.0 0.00 0.00 0.00 50 1011.6
20260509171100 75 122 3.0 6.0 0.00 0.00 0.00 49 1011.9
20260509170556 75 213 0.0 3.0 0.00 0.00 0.00 49 1011.8
20260509170053 74 220 1.0 6.0 0.00 0.00 0.00 50 1011.8
20260509165551 73 196 2.0 3.0 0.00 0.00 0.00 51 1011.7
20260509165047 73 143 3.0 5.0 0.00 0.00 0.00 52 1012.0
20260509164543 73 164 1.0 5.0 0.00 0.00 0.00 52 1012.0
20260509164044 73 150 2.0 5.0 0.00 0.00 0.00 51 1012.3
20260509163543 73 161 2.0 3.0 0.00 0.00 0.00 50 1012.4
20260509163038 73 23 2.0 3.0 0.00 0.00 0.00 51 1012.1
20260509162535 72 98 2.0 5.0 0.00 0.00 0.00 51 1012.4
20260509162031 71 183 1.0 3.0 0.00 0.00 0.00 52 1012.2
20260509161527 70 146 2.0 3.0 0.00 0.00 0.00 53 1012.3
20260509161022 71 115 3.0 6.0 0.00 0.00 0.00 49 1012.3
20260509160518 72 159 4.0 5.0 0.00 0.00 0.00 50 1012.4
20260509160014 72 66 2.0 2.0 0.00 0.00 0.00 51 1012.5
20260509155510 71 163 1.0 3.0 0.00 0.00 0.00 50 1012.7
20260509155006 71 184 1.0 6.0 0.00 0.00 0.00 51 1012.7
20260509154502 71 151 0.0 2.0 0.00 0.00 0.00 53 1012.5
20260509154000 71 155 3.0 3.0 0.00 0.00 0.00 53 1012.9
20260509153457 71 142 2.0 3.0 0.00 0.00 0.00 55 1013.0
20260509152953 71 173 2.0 3.0 0.00 0.00 0.00 54 1012.8
20260509152449 71 233 0.0 4.0 0.00 0.00 0.00 55 1013.2
20260509151947 71 97 3.0 4.0 0.00 0.00 0.00 57 1013.0
20260509151443 70 161 1.0 3.0 0.00 0.00 0.00 57 1013.1
20260509150941 69 128 0.0 2.0 0.00 0.00 0.00 58 1013.2
20260509150438 69 148 3.0 3.0 0.00 0.00 0.00 60 1013.1
20260509145936 69 118 4.0 4.0 0.00 0.00 0.00 59 1013.4
20260509145431 68 193 2.0 3.0 0.00 0.00 0.00 60 1013.2
20260509144927 68 129 3.0 3.0 0.00 0.00 0.00 60 1013.4
20260509144424 68 93 2.0 4.0 0.00 0.00 0.00 62 1013.6
20260509143921 67 312 2.0 3.0 0.00 0.00 0.00 63 1013.6
20260509143418 67 87 2.0 3.0 0.00 0.00 0.00 65 1013.6
20260509142914 66 106 1.0 3.0 0.00 0.00 0.00 66 1014.0
20260509142411 66 125 3.0 3.0 0.00 0.00 0.00 67 1014.1
20260509141906 66 235 0.0 2.0 0.00 0.00 0.00 66 1013.8
20260509141404 66 149 2.0 2.0 0.00 0.00 0.00 70 1014.0
20260509140901 66 167 2.0 3.0 0.00 0.00 0.00 69 1014.0
20260509140357 65 171 2.0 2.0 0.00 0.00 0.00 70 1013.9
20260509135855 65 146 3.0 3.0 0.00 0.00 0.00 70 1013.8
20260509135352 65 152 2.0 4.0 0.00 0.00 0.00 68 1013.8
20260509134850 64 207 1.0 3.0 0.00 0.00 0.00 72 1013.9
20260509134347 64 131 2.0 3.0 0.00 0.00 0.00 72 1014.0
20260509133843 63 106 1.0 3.0 0.00 0.00 0.00 73 1014.2
20260509133340 63 122 2.0 2.0 0.00 0.00 0.00 75 1014.4
20260509132840 63 131 2.0 2.0 0.00 0.00 0.00 75 1014.2
20260509132337 62 151 2.0 2.0 0.00 0.00 0.00 76 1014.3
20260509131834 62 142 2.0 3.0 0.00 0.00 0.00 77 1014.4
20260509131331 62 163 2.0 3.0 0.00 0.00 0.00 77 1014.6
20260509130827 61 114 1.0 3.0 0.00 0.00 0.00 77 1014.4
20260509130323 61 127 3.0 3.0 0.00 0.00 0.00 77 1014.4
20260509125819 61 130 2.0 2.0 0.00 0.00 0.00 77 1014.2
20260509125316 60 151 2.0 3.0 0.00 0.00 0.00 78 1014.1
20260509124812 60 128 2.0 3.0 0.00 0.00 0.00 78 1014.3
20260509124309 60 103 1.0 2.0 0.00 0.00 0.00 79 1014.1
20260509123808 59 109 1.0 3.0 0.00 0.00 0.00 80 1014.2
20260509123304 59 152 2.0 3.0 0.00 0.00 0.00 81 1014.4
20260509122800 59 125 2.0 3.0 0.00 0.00 0.00 82 1014.3
20260509122257 58 141 2.0 2.0 0.00 0.00 0.00 83 1014.4
20260509121754 58 110 2.0 3.0 0.00 0.00 0.00 83 1014.7
20260509121251 58 173 2.0 3.0 0.00 0.00 0.00 84 1014.5
20260509120749 57 139 2.0 2.0 0.00 0.00 0.00 84 1014.7
20260509120247 57 146 1.0 3.0 0.00 0.00 0.00 85 1014.9
20260509115745 57 126 1.0 2.0 0.00 0.00 0.00 85 1014.5
20260509115241 56 141 0.0 3.0 0.00 0.00 0.00 86 1014.8
20260509114740 56 136 1.0 2.0 0.00 0.00 0.00 87 1014.5
20260509114238 55 119 1.0 3.0 0.00 0.00 0.00 88 1014.4
20260509113737 55 127 2.0 3.0 0.00 0.00 0.00 89 1014.4
20260509113233 54 154 2.0 3.0 0.00 0.00 0.00 90 1014.5
20260509112730 54 152 1.0 2.0 0.00 0.00 0.00 91 1014.4
20260509112227 53 161 2.0 3.0 0.00 0.00 0.00 91 1014.4
20260509111724 53 149 2.0 3.0 0.00 0.00 0.00 91 1014.6
20260509111221 52 149 2.0 2.0 0.00 0.00 0.00 91 1014.3
20260509110718 52 152 2.0 2.0 0.00 0.00 0.00 91 1014.4
20260509110215 52 149 2.0 3.0 0.00 0.00 0.00 92 1014.4
20260509105713 51 161 2.0 3.0 0.00 0.00 0.00 92 1014.4
20260509105210 51 149 2.0 2.0 0.00 0.00 0.00 92 1014.6
20260509104707 51 153 2.0 2.0 0.00 0.00 0.00 93 1014.3
20260509104204 51 175 2.0 3.0 0.00 0.00 0.00 93 1014.2
20260509103702 50 147 2.0 2.0 0.00 0.00 0.00 93 1014.3
20260509103159 50 140 2.0 2.0 0.00 0.00 0.00 93 1014.5
20260509102657 50 151 2.0 2.0 0.00 0.00 0.00 93 1014.3
20260509102154 50 149 2.0 2.0 0.00 0.00 0.00 93 1014.5
20260509101650 50 140 2.0 3.0 0.00 0.00 0.00 93 1014.4
20260509101147 50 144 2.0 2.0 0.00 0.00 0.00 92 1014.4
20260509100645 50 151 2.0 2.0 0.00 0.00 0.00 92 1014.2
20260509100141 50 147 2.0 2.0 0.00 0.00 0.00 92 1014.3
20260509095638 50 146 2.0 2.0 0.00 0.00 0.00 91 1014.4
20260509095135 50 142 2.0 2.0 0.00 0.00 0.00 90 1014.5
20260509094631 50 147 2.0 2.0 0.00 0.00 0.00 90 1014.2
20260509094129 51 155 2.0 3.0 0.00 0.00 0.00 90 1014.7
20260509093627 51 139 2.0 2.0 0.00 0.00 0.00 89 1014.3
20260509093124 51 143 2.0 2.0 0.00 0.00 0.00 89 1014.5
20260509092622 51 152 2.0 2.0 0.00 0.00 0.00 88 1014.4
20260509092120 51 151 2.0 2.0 0.00 0.00 0.00 87 1014.7
20260509091618 51 159 2.0 2.0 0.00 0.00 0.00 87 1014.5
20260509091113 52 143 2.0 3.0 0.00 0.00 0.00 86 1014.5
20260509090611 52 141 2.0 2.0 0.00 0.00 0.00 85 1014.5
20260509090109 52 147 1.0 2.0 0.00 0.00 0.00 82 1014.6
20260509085606 53 155 2.0 2.0 0.00 0.00 0.00 81 1014.8
20260509085102 53 150 2.0 2.0 0.00 0.00 0.00 80 1014.5
20260509084559 53 154 2.0 2.0 0.00 0.00 0.00 80 1014.5
20260509084056 53 154 2.0 2.0 0.00 0.00 0.00 80 1014.3
20260509083554 53 175 2.0 2.0 0.00 0.00 0.00 81 1014.3
20260509083050 53 158 2.0 2.0 0.00 0.00 0.00 83 1014.3
20260509082548 53 160 2.0 3.0 0.00 0.00 0.00 82 1014.3
20260509082044 53 145 2.0 2.0 0.00 0.00 0.00 80 1014.2
20260509081542 53 159 2.0 2.0 0.00 0.00 0.00 79 1014.3
20260509081038 53 158 2.0 3.0 0.00 0.00 0.00 79 1014.3
20260509080536 53 114 1.0 2.0 0.00 0.00 0.00 80 1014.2
20260509080034 53 151 2.0 2.0 0.00 0.00 0.00 81 1014.2
20260509075531 53 122 1.0 2.0 0.00 0.00 0.00 81 1014.4
20260509075029 53 153 2.0 2.0 0.00 0.00 0.00 79 1014.3
20260509074526 53 148 2.0 2.0 0.00 0.00 0.00 79 1014.5
20260509074023 53 169 2.0 3.0 0.00 0.00 0.00 78 1014.6
20260509073519 53 143 2.0 2.0 0.00 0.00 0.00 79 1014.6
20260509073016 53 218 3.0 3.0 0.00 0.00 0.00 79 1014.6
20260509072512 53 151 2.0 2.0 0.00 0.00 0.00 80 1014.6
20260509072009 52 154 2.0 3.0 0.00 0.00 0.00 80 1014.6
20260509071506 51 157 2.0 2.0 0.00 0.00 0.00 83 1014.9
20260509071003 51 153 2.0 3.0 0.00 0.00 0.00 84 1014.6
20260509070500 50 146 2.0 3.0 0.00 0.00 0.00 85 1014.8
20260509065956 50 146 3.0 3.0 0.00 0.00 0.00 86 1014.8
20260509065452 50 168 1.0 3.0 0.00 0.00 0.00 87 1015.1
20260509064948 50 137 1.0 2.0 0.00 0.00 0.00 87 1015.1
20260509064446 50 167 2.0 3.0 0.00 0.00 0.00 87 1015.4
20260509063944 50 148 2.0 3.0 0.00 0.00 0.00 87 1015.1
20260509063445 50 139 2.0 3.0 0.00 0.00 0.00 86 1015.5
20260509062942 51 147 2.0 2.0 0.00 0.00 0.00 86 1015.4
20260509062439 51 158 2.0 3.0 0.00 0.00 0.00 85 1015.5
20260509061937 51 146 2.0 3.0 0.00 0.00 0.00 85 1015.7
20260509061434 51 154 2.0 2.0 0.00 0.00 0.00 84 1015.8
20260509060931 51 143 2.0 2.0 0.00 0.00 0.00 83 1015.9
20260509060428 51 151 2.0 2.0 0.00 0.00 0.00 82 1015.9
20260509055923 51 147 2.0 2.0 0.00 0.00 0.00 82 1015.8
20260509055419 51 149 2.0 2.0 0.00 0.00 0.00 83 1016.0
20260509054916 51 147 2.0 2.0 0.00 0.00 0.00 82 1015.7
20260509054413 51 149 2.0 3.0 0.00 0.00 0.00 82 1015.7
20260509053911 51 153 1.0 2.0 0.00 0.00 0.00 81 1015.8
20260509053408 51 136 2.0 3.0 0.00 0.00 0.00 81 1015.8
20260509052906 52 154 2.0 3.0 0.00 0.00 0.00 81 1015.7
20260509052403 52 160 2.0 3.0 0.00 0.00 0.00 81 1015.4
20260509051901 52 150 2.0 2.0 0.00 0.00 0.00 79 1015.6
20260509051359 52 155 2.0 2.0 0.00 0.00 0.00 79 1015.2
20260509050855 53 166 2.0 2.0 0.00 0.00 0.00 78 1015.4
20260509050352 53 161 2.0 2.0 0.00 0.00 0.00 78 1015.2
20260509045849 53 156 2.0 2.0 0.00 0.00 0.00 77 1015.3
20260509045346 53 147 2.0 3.0 0.00 0.00 0.00 76 1015.4
20260509044843 54 151 2.0 3.0 0.00 0.00 0.00 76 1015.1
20260509044341 54 157 2.0 2.0 0.00 0.00 0.00 72 1015.2
20260509043837 54 150 2.0 2.0 0.00 0.00 0.00 71 1015.3
20260509043333 55 156 2.0 2.0 0.00 0.00 0.00 73 1015.3
20260509042829 55 148 2.0 2.0 0.00 0.00 0.00 67 1015.1
20260509042325 55 139 1.0 2.0 0.00 0.00 0.00 69 1015.4
20260509041822 55 152 2.0 2.0 0.00 0.00 0.00 70 1015.3
20260509041319 56 152 2.0 2.0 0.00 0.00 0.00 74 1015.4
20260509040818 56 143 2.0 2.0 0.00 0.00 0.00 71 1015.5
20260509040315 56 144 2.0 2.0 0.00 0.00 0.00 68 1015.4
20260509035812 56 152 2.0 2.0 0.00 0.00 0.00 68 1015.3
20260509035309 56 149 2.0 2.0 0.00 0.00 0.00 67 1015.3
20260509034805 56 152 2.0 2.0 0.00 0.00 0.00 65 1015.6
20260509034303 56 157 1.0 2.0 0.00 0.00 0.00 65 1015.5
20260509033759 56 146 2.0 2.0 0.00 0.00 0.00 67 1015.7
20260509033257 56 149 2.0 2.0 0.00 0.00 0.00 69 1015.7
20260509032754 56 138 1.0 2.0 0.00 0.00 0.00 73 1015.6
20260509032250 56 145 2.0 2.0 0.00 0.00 0.00 66 1015.8
20260509031748 56 146 2.0 2.0 0.00 0.00 0.00 69 1016.1
20260509031245 56 144 1.0 2.0 0.00 0.00 0.00 70 1015.7
20260509030743 56 162 2.0 2.0 0.00 0.00 0.00 66 1015.7
20260509030241 56 157 2.0 2.0 0.00 0.00 0.00 66 1015.9
20260509025737 56 161 2.0 2.0 0.00 0.00 0.00 63 1015.5
20260509025233 56 160 1.0 2.0 0.00 0.00 0.00 70 1015.5
20260509024728 56 161 1.0 2.0 0.00 0.00 0.00 70 1015.9
20260509024224 56 148 2.0 2.0 0.00 0.00 0.00 70 1015.6